Simultaneous Nadir Overpasses (SNOs) Predictions

Prediction of SNOs between AQUA and METOP-B Satellite Orbit:

Table of predicted SNOs for the next 14.0 days since TLE Epoch: 11/22/2012
Index Date (AQUA) Time (AQUA) AQUA Lat,Lon Date (METOP-B) Time (METOP-B) METOP-B Lat,Lon Distance(km) Time Diff (sec)
1 11/24/2012 05:55:44 73.73, 85.40 11/24/2012 05:55:12 73.74, 85.35 2.19 32
2 11/24/2012 06:45:11 -73.81,-107.13 11/24/2012 06:45:53 -73.82,-107.15 0.93 42
3 11/27/2012 00:40:18 -73.06, -14.40 11/27/2012 00:39:12 -73.01, -17.23 91.92 66
4 11/27/2012 01:29:59 73.77, 151.77 11/27/2012 01:29:36 73.76, 151.80 1.30 23
5 11/27/2012 02:19:26 -73.84, -40.76 11/27/2012 02:20:17 -73.84, -40.68 2.49 51
6 11/29/2012 20:14:39 -73.50, 51.16 11/29/2012 20:13:28 -73.43, 50.10 34.58 71
7 11/29/2012 21:04:12 73.79,-141.83 11/29/2012 21:04:00 73.77,-141.77 2.85 12
8 11/29/2012 21:53:39 -73.86, 25.65 11/29/2012 21:54:41 -73.85, 25.76 3.40 62
9 12/02/2012 15:48:53 -73.71, 117.17 12/02/2012 15:47:45 -73.72, 117.20 2.31 68
10 12/02/2012 16:38:22 73.79, -75.39 12/02/2012 16:38:23 73.77, -75.37 3.24 1
11 12/02/2012 17:27:50 -73.92, 91.99 12/02/2012 17:29:03 -73.90, 92.29 9.32 73
12 12/05/2012 11:23:03 -73.74,-176.44 12/05/2012 11:22:09 -73.71,-176.42 3.34 54
13 12/05/2012 12:12:31 73.78, -8.90 12/05/2012 12:12:46 73.80, -8.87 1.99 15




NCC Satellite Simultaneous Nadir Overpasses (SNOs) Prediction Service
